Погода в Сытомине

Россия / Ханты-Мансийский автономный округ - Югра     61°18′14″N   71°17′41″E
темп.,
°C
ветер,
м/с
пор.,
м/с
влажн.,
%
обл.,
%
осадки,
мм/ч
давл.,
гПа
погр.,
м
18 мая, вт
вт1823:00+10св688448 0.3 1010304
02:00+9св678378 0.0 1010385
05:00+8св71083100 0.0 1012510
08:00+10св686995 0.0 1014631
11:00+11св6751100 0.0 1016835
14:00+13ссв674159 0.0 10171245
17:00+14с773887 0.0 10181830
20:00+11с68515 0.0 1019498
19 мая, ср
ср1923:00+9ссз5756100 0.0 1021153
02:00+6ссв59624 0.0 1022251
05:00+5с69595 0.0 1023471
08:00+7с896014 0.0 10241037
11:00+9ссв774356 0.0 10241536
14:00+11с77325 0.0 10241820
17:00+11ссв673174 0.0 10241750
20:00+10ссв4534100 0.0 1024595
20 мая, чт
чт2023:00+8вюв3540100 0.0 1024239
02:00+7ююз3348100 0.0 1023842
05:00+4ююв7883100 2.1 1021403
08:00+4ююв81191100 4.6 1019412
11:00+5ю71190100 5.7 1018528
14:00+6ю6789100 0.1 1017444
17:00+7ююв448678 0.1 1018389
20:00+7юв448897 0.0 1018251
21 мая, пт
пт2123:00+6ююв349226 0.0 1019161
02:00+5юз339535 0.0 101925
05:00+7юз3492100 0.0 1019107
08:00+13зюз577596 0.0 1018354
11:00+21зюз685514 0.5 1017861
14:00+27з8104359 0.0 10151605
17:00+28зсз7103135 0.0 10143154
20:00+23зюз712519 0.0 1014169
22 мая, сб
сб2223:00+19юз696784 0.1 1014109
02:00+18з45693 0.0 101453
05:00+18з34615 0.0 101554
08:00+23з33485 0.0 1015304
11:00+28юз34362 0.0 1014965
14:00+29юз6625100 0.0 10132911
17:00+29юз672657 0.0 10133056
20:00+24юз57395 0.0 101298